Santiago, Chile

9:45 PM -03 on August 15, 2018 (GMT -0300)
Arturo Merino Benitez International

Weather History for SCEL - February, 2018

Change the Weather History Date:

Wednesday, February 21, 2018

  Actual Average Record
Temperature  
Mean Temperature 73 °F -  
Max Temperature 89 °F 79 °F 94 °F (2017)
Min Temperature 57 °F 50 °F 46 °F (2003)
Cooling Degree Days 8    
Growing Degree Days 23 (Base 50)    
Moisture  
Dew Point 53 °F    
Average Humidity 51    
Maximum Humidity 82    
Minimum Humidity 18    
Precipitation  
Precipitation 0.00 in - - ()
Sea Level Pressure  
Sea Level Pressure 30.00 in    
Wind  
Wind Speed 7 mph ()    
Max Wind Speed 17 mph    
Max Gust Speed -    
Visibility 5.4 miles    
Events      
Averages and records for this station are not official NWS values.
T = Trace of Precipitation, MM = Missing Value Source: Averaged Metar Reports

Daily Weather History Graph

Daily Weather History Graph

Search for Another Location

Airport or City:

Astronomy

Feb. 21, 2018 Rise Set
Actual Time 7:24 AM -03 8:28 PM -03
Civil Twilight 6:58 AM -03 8:53 PM -03
Nautical Twilight 6:28 AM -03 9:24 PM -03
Astronomical Twilight 5:57 AM -03 9:55 PM -03
Moon 12:48 PM -03 (2/21) No Moon Set
Length of Visible Light 13h 54m
Length of Day
13h 03m
Waxing Crescent, 31% of the Moon is Illuminated
Feb 21
Waxing Crescent
Feb 23
First Quarter
Mar 1
Full
Mar 9
Last Quarter
Mar 17
New

Hourly Weather History & Observations

Time (-03) Temp. Heat Index Dew Point Humidity Pressure Visibility Wind Dir Wind Speed Gust Speed Precip Events Conditions
12:00 AM 69.8 °F - 55.4 °F 60% 30.01 in - SSE 6.9 mph - N/A   Clear
1:00 AM 69.8 °F - 55.4 °F 60% 30.01 in - SE 3.5 mph - N/A   Clear
2:00 AM 68.0 °F - 55.4 °F 64% 30.01 in - SSE 9.2 mph - N/A   Clear
3:00 AM 67 °F - 56 °F 58% 29.98 in 6 mi SSE 5.8 mph - -   Partly Cloudy
3:00 AM 66.2 °F - 55.4 °F 68% 30.01 in - SSE 5.8 mph - N/A   Clear
4:00 AM 66.2 °F - 55.4 °F 68% 30.01 in - SSE 5.8 mph - N/A   Clear
5:00 AM 64.4 °F - 55.4 °F 73% 30.01 in - South 4.6 mph - N/A   Clear
6:00 AM 60.8 °F - 53.6 °F 77% 29.98 in - Variable 1.2 mph - N/A   Clear
7:00 AM 59.0 °F - 53.6 °F 82% 30.01 in - NNE 3.5 mph - N/A   Clear
8:00 AM 59.0 °F - 53.6 °F 82% 30.01 in 5.0 mi Variable 2.3 mph - N/A   Unknown
9:00 AM 64 °F - 55 °F 65% 30.01 in 5 mi NNW 2.3 mph - -   Smoke
9:00 AM 64.4 °F - 55.4 °F 73% 30.04 in 5.0 mi NNW 2.3 mph - N/A   Unknown
10:00 AM 69.8 °F - 55.4 °F 60% 30.04 in 5.0 mi Variable 1.2 mph - N/A   Unknown
11:00 AM 73.4 °F - 55.4 °F 53% 30.04 in - Variable 2.3 mph - N/A   Clear
12:00 PM 77.0 °F - 55.4 °F 47% 30.04 in - ESE 5.8 mph - N/A   Clear
1:00 PM 80.6 °F 80.3 °F 53.6 °F 39% 30.04 in - South 11.5 mph - N/A   Clear
2:00 PM 84.2 °F - 51.8 °F 33% 30.01 in - South 10.4 mph - N/A   Clear
3:00 PM 88 °F - 51 °F 18% 29.90 in 6 mi SSW 11.5 mph - -   Partly Cloudy
3:00 PM 87.8 °F - 50.0 °F 27% 29.98 in - SSW 11.5 mph - N/A   Clear
4:00 PM 87.8 °F - 48.2 °F 25% 29.98 in - SW 12.7 mph - N/A   Clear
5:00 PM 89.6 °F - 48.2 °F 24% 29.95 in - SSW 15.0 mph - N/A   Clear
6:00 PM 86.0 °F 84.2 °F 53.6 °F 33% 29.95 in - SW 16.1 mph - N/A   Clear
7:00 PM 82.4 °F 81.4 °F 53.6 °F 37% 29.95 in - SW 17.3 mph - N/A   Clear
8:00 PM 78.8 °F - 51.8 °F 39% 29.98 in - SSW 16.1 mph - N/A   Clear
9:00 PM 76 °F - 52 °F 32% 29.93 in 6 mi SSW 16.1 mph - -   Partly Cloudy
9:00 PM 75.2 °F - 51.8 °F 44% 29.98 in - SSW 16.1 mph - N/A   Clear
10:00 PM 73.4 °F - 51.8 °F 47% 30.01 in - South 13.8 mph - N/A   Clear
11:00 PM 71.6 °F - 50.0 °F 46% 30.01 in - SSE 9.2 mph - N/A   Clear